Location: Remedello Sotto
(45.2500°N, 10.3667°E)
Time: 11:16:38
(UTC+00:00)

BREEZE-M DEB (TANK) - Pass Details

Date: 03 February 2023
Orbit: 426 x 13838 km, 45.9° (Epoch: 19 March)

Event Time Altitude Azimuth Distance (km) Brightness Sun altitude
Rises 17:15:39 0° 269° (W) 2,390 7.4 -8.7°
Reaches altitude 10° 17:17:14 10° 271° (W) 1,610 6.2 -9.0°
Maximum altitude 17:20:16 81° 359° (N) 642 2.6 -9.5°
Enters shadow 17:26:16 12° 87° (E) 3,145 5.5 -10.6°
